Rechercher aéroport 
image banner adimage banner ad
image banner ad

SNWQ - Tambori

Situé à Teresina, Brazil

ICAO - , IATA -

Données fournies par Airmate  

Information générale

Coordonnées: S5°9'45" W42°43'17"
Élévation : 219 feet MSL.
Variation magnétique : -21° East
Voir autres Aéroports à Piauí

Données opérationnelles

Accessible au public
Heure actuelle UTC:
Heure actuelle locale:
METAR: SBTE 181400Z 04003KT 9999 SCT020 BKN030 BKN090 30/23 Q1011
TAF: TAF SBTE 180855Z 1812/1824 32005KT 9999 SCT020 TX35/1818Z TN27/1824Z BECMG 1812/1814 14005KT BECMG 1820/1822 20005KT RMK PGW
Voir NOTAMs / SUP AIP / TFR affectant cet aéroport [VIEW]
Fréquences de communication: [VIEW]

Pistes:

Identifiant RWYQFULongueur (ft)Largeur (ft)SurfaceLDA (ft)
15229659GRASS
33229659GRASS

Coordonnées de l'aéroport

Adresse: Teresina Brazil

Vue satellite de SNWQ